This demonstration page uses our WeatherBlox Daily Observations layout. Learn more.

Left ArrowRight Arrow

39.12711, -84.51439

Hourly Observations for November 3, 2020

Temp ( °F °C ) Dew Point ( °F °C ) Humidity (%) Winds ( mph kmh ) Pressure ( in mb ) Visibility ( mi km ) Precip ( " mm )
12:53 am 00:53 Clear 41 5 21 -6.1 45 45 SW 8 13 30.24 1024 10 16 0.00 0.00
1:53 am 01:53 Clear 40 4.4 21 -6.1 47 47 SW 9 15 30.23 1024 10 16 0.00 0.00
2:53 am 02:53 Clear 39 3.9 21 -6.1 48 48 S 3 6 30.24 1024 10 16 0.00 0.00
3:53 am 03:53 Clear 39 3.9 22 -5.6 50 50 S 6 9 30.24 1024 10 16 0.00 0.00
4:53 am 04:53 Clear 38 3.3 23 -5 55 55 S 6 9 30.24 1024 10 16 0.00 0.00
5:53 am 05:53 Clear 36 2.2 23 -5 59 59 SSW 5 7 30.24 1024 10 16 0.00 0.00
6:53 am 06:53 Clear 34 1.1 23 -5 64 64 S 7 11 30.24 1024 10 16 0.00 0.00
7:53 am 07:53 Sunny 35 1.7 27 -2.8 72 72 S 6 9 30.26 1025 10 16 0.00 0.00
8:53 am 08:53 Sunny 43 6.1 27 -2.8 53 53 S 7 11 30.27 1025 10 16 0.00 0.00
9:53 am 09:53 Sunny 49 9.4 28 -2.2 44 44 S 9 15 30.26 1025 10 16 0.00 0.00
10:53 am 10:53 Sunny 53 11.7 29 -1.7 40 40 SW 7 11 30.27 1025 10 16 0.00 0.00
11:53 am 11:53 Sunny 56 13.3 31 -0.6 39 39 SSW 8 13 30.26 1025 10 16 0.00 0.00
12:53 pm 12:53 Sunny 61 16.1 33 0.6 35 35 VRB 6 9 30.23 1024 10 16 0.00 0.00
1:53 pm 13:53 Sunny 64 17.8 33 0.6 32 32 SW 12 19 30.21 1023 10 16 0.00 0.00
2:53 pm 14:53 Sunny 65 18.3 32 0 29 29 WSW 12 19 30.21 1023 10 16 0.00 0.00
3:53 pm 15:53 Sunny 64 17.8 33 0.6 32 32 SW 9 15 30.21 1023 10 16 0.00 0.00
4:53 pm 16:53 Sunny 60 15.6 34 1.1 38 38 SSW 9 15 30.21 1023 10 16 0.00 0.00
5:53 pm 17:53 Clear 54 12.2 33 0.6 45 45 SSW 6 9 30.21 1023 10 16 0.00 0.00
6:53 pm 18:53 Clear 49 9.4 37 2.8 64 64 SSW 3 6 30.23 1024 10 16 0.00 0.00
7:53 pm 19:53 Clear 46 7.8 37 2.8 71 71 Calm 30.24 1024 10 16 0.00 0.00
8:53 pm 20:53 Clear 44 6.7 38 3.3 79 79 Calm 30.25 1025 10 16 0.00 0.00
9:53 pm 21:53 Clear 41 5 37 2.8 86 86 Calm 30.26 1025 10 16 0.00 0.00
10:53 pm 22:53 Clear 39 3.9 36 2.2 89 89 Calm 30.27 1025 10 16 0.00 0.00
11:53 pm 23:53 Clear 39 3.9 37 2.8 93 93 Calm 30.27 1025 10 16 0.00 0.00

Powered by AerisWeather